Вернуться в каталог

STARLINK-30951

АктивенСвязьVLEO
NORAD 58439·PAYLOAD·🇺🇸 United States

Запущен Nov 28, 2023 с Cape Canaveral Space Force Station

Loading…

Ближайшие Пролёты (ближайшие 24 часа)

TLE

СвежийSource: CelesTrak SupGP

Эпоха: Sep 15, 2026, 01:08 UTC

1 58439C 23183C   26258.04770833 -.00011330  00000+0 -41026-3 0  2584
2 58439  43.0008  52.3638 0001524 271.7485  50.3833 15.27592161    11

Отслеживайте STARLINK-30951 в реальном времени с AllMySat

Download on the App Store